sat.trackr.live / text

‹ back to catalog

STARLINK-2634

NORAD 48445 · 2021-040T

PAYLOAD ACTIVE UNKNOWN

§ Identity

Operator
Country
US
Launch date
2021-05-09
Launch site
AFETR
Launch vehicle
Mass (kg)
RCS (m²)

Purposes: comms

External: N2YO · Heavens-Above · Gunter

§ Orbital elements

Epoch: 2026-05-24T14:57:56.502432Z

Period
94.01 min
Inclination
53.1585°
Eccentricity
0.0001204
Mean motion
15.31705720 rev/d
Perigee alt
469.9 km
Apogee alt
471.5 km
Semi-major
6,848.9 km
B*
6.8412e-5
RAAN
184.9458°
Arg perigee
88.7394°
Mean anomaly
271.3745°
Rev number
27,831

§ Raw data

STARLINK-26341 48445U 21040T   26144.62357063  .00001759  00000+0  68412-4 0  99972 48445  53.1585 184.9458 0001204  88.7394 271.3745 15.31705720278310

JSON: /api/v1/satellites/48445 · /tle

For live sub-satellite position, see the globe view (requires WebGL).

§ Visibility from observer

Set your observer location to see the next 7 days of passes ≥ 10°. The values pass through the URL so the page stays shareable.

No JS? Fill the form by hand. The geolocation button needs JavaScript.